GEFSSE_500_meanwind_078.txt.gz
Wind_Speed
13 12 10 8 7 7 6 5 5 4 3 2 2 3 4 5 5 6 7 8 8 9 9 10 10 10 10 11 11 12 12 13 13 14 14 15 15 16 17 17 17 18 18
14 13 11 9 8 7 7 6 5 4 3 2 3 4 5 6 7 7 8 9 9 9 10 10 11 11 11 12 12 13 13 14 14 15 15 16 16 17 17 18 18 18 18
15 14 12 10 9 8 7 6 5 4 3 3 4 4 5 6 7 8 9 9 10 10 10 10 11 12 12 13 13 14 14 15 15 16 16 16 17 17 17 17 17 18 18
16 14 12 11 10 9 7 6 5 4 3 4 4 5 6 7 8 9 9 10 10 11 11 12 12 13 13 14 14 14 15 15 16 16 16 17 17 17 17 17 17 18 18
16 15 13 12 10 9 8 7 6 5 4 5 5 6 7 8 8 9 10 11 11 12 12 13 13 14 14 14 15 15 16 16 17 17 17 17 17 17 17 17 18 18 18
17 16 14 12 11 9 8 7 7 6 6 6 6 7 8 9 10 10 11 12 13 13 14 14 14 15 15 15 16 16 16 17 17 17 18 18 18 18 18 18 18 18 18
19 18 15 13 12 10 9 8 7 7 7 7 8 9 9 10 11 12 13 14 14 14 15 15 15 16 16 16 17 17 17 18 18 19 19 19 19 19 19 19 19 19 19
21 19 17 15 13 12 10 9 9 9 9 9 10 10 11 12 13 14 14 15 15 16 16 16 16 17 17 18 18 18 19 19 20 20 21 21 21 21 21 21 21 21 21
22 20 18 16 15 13 12 11 11 11 11 11 11 12 13 14 15 15 16 16 16 17 17 17 18 18 18 19 19 20 20 21 21 22 23 23 23 23 23 23 23 23 23
24 22 20 18 17 15 14 13 13 13 13 13 13 14 15 15 16 16 17 17 18 18 18 19 19 19 20 20 21 21 22 22 23 24 24 25 25 25 25 25 25 25 25
26 24 22 20 19 18 16 15 15 15 15 15 15 16 16 16 17 17 18 18 18 19 19 20 20 20 21 22 23 23 24 24 25 26 26 26 27 27 28 28 28 28 28
28 26 24 23 21 20 19 18 17 17 17 17 17 17 17 17 18 18 19 19 19 20 20 21 21 22 22 23 24 25 26 26 27 28 28 29 29 29 30 30 30 30 30
31 29 27 25 24 22 21 20 20 19 19 19 19 19 19 19 19 19 20 20 21 21 22 22 23 23 24 25 25 26 27 28 29 30 30 31 31 31 32 32 32 32 32
33 31 29 28 26 25 24 23 22 22 22 21 21 21 21 21 21 21 21 21 22 22 23 23 24 25 26 27 27 28 29 29 30 31 32 33 33 34 34 35 35 35 35
35 33 32 30 29 28 27 26 25 25 24 24 23 23 23 23 23 23 23 23 24 24 24 25 26 27 27 28 29 30 31 31 32 33 34 34 35 36 36 37 37 38 38
38 36 35 33 31 30 29 29 28 28 27 26 26 25 25 25 25 25 25 26 26 26 26 27 28 28 29 30 31 32 33 33 34 35 36 37 37 38 39 39 40 40 40
40 38 36 35 34 33 32 32 31 30 30 29 29 28 28 28 27 27 27 28 28 28 29 29 30 31 32 33 34 35 35 36 37 37 38 38 39 40 41 41 42 42 42
42 40 38 37 36 36 35 34 34 33 32 31 31 31 30 30 30 30 30 30 31 31 31 32 33 33 34 35 36 37 37 38 39 40 40 41 41 42 43 43 43 44 44
43 42 40 40 38 38 37 36 36 35 34 34 33 33 33 33 32 32 32 32 33 33 33 34 35 36 37 38 39 40 40 41 41 42 42 43 43 44 44 45 45 45 45
44 43 42 41 40 40 39 39 38 37 37 36 36 35 35 35 34 34 34 34 35 35 36 37 38 39 40 41 42 42 42 43 43 43 44 44 45 45 46 46 47 47 46
46 45 44 43 42 41 41 41 40 39 39 39 38 37 37 37 37 36 36 36 37 38 38 39 40 41 42 43 44 43 43 43 44 44 45 45 46 47 48 48 48 47 47
46 46 46 45 44 43 43 43 42 42 41 40 39 39 39 39 38 38 38 39 39 40 41 41 42 43 43 45 45 45 44 43 43 45 45 46 47 47 48 48 48 48 48
46 46 46 46 46 45 45 44 44 43 42 42 41 41 40 40 40 40 40 41 42 42 43 43 44 45 45 45 46 46 46 45 44 44 45 46 46 47 47 48 48 49 49
46 46 46 47 46 46 46 45 45 44 43 43 42 42 42 42 42 42 42 43 43 44 44 45 46 46 46 46 46 46 47 47 46 45 44 45 45 46 47 48 49 49 50
45 46 46 47 47 47 47 47 46 45 45 44 43 43 43 43 43 43 43 44 44 45 45 46 46 47 46 46 46 46 46 47 47 47 45 45 45 46 48 49 49 49 50
46 46 46 47 47 47 47 47 47 46 46 45 44 44 44 44 44 44 45 45 45 46 46 47 47 46 46 46 46 46 46 46 45 46 45 45 45 46 48 48 48 48 49

GEFSSE_500_meanwind_084.txt.gz
Wind_Speed
15 14 12 11 9 8 7 6 6 5 5 5 4 3 2 1 1 2 3 4 5 5 6 6 7 8 9 9 10 10 11 11 12 13 13 14 14 15 15 16 16 16 16
16 15 13 11 10 8 7 7 6 6 5 5 4 3 2 1 2 2 3 5 5 6 6 7 8 8 9 10 11 11 12 12 13 13 14 14 15 15 16 16 16 17 17
17 16 14 12 11 9 8 7 7 6 5 4 4 3 2 2 2 3 4 5 5 6 6 7 8 9 10 11 11 12 12 13 13 14 14 15 16 16 17 17 17 18 18
18 17 15 13 12 10 9 8 7 7 6 5 4 3 2 2 2 3 4 5 5 6 7 7 8 9 10 11 12 12 13 14 14 15 16 16 17 17 18 18 19 19 19
19 18 16 14 13 11 10 9 8 7 7 6 5 4 3 3 3 3 4 5 6 6 7 8 9 10 10 11 12 13 14 14 15 16 16 17 18 19 19 20 20 20 20
20 19 17 15 14 12 11 10 9 8 7 7 6 5 4 4 4 4 5 6 6 7 8 9 10 10 11 12 12 13 14 15 16 16 17 18 19 20 20 21 21 22 22
21 20 18 17 15 14 13 11 10 9 8 7 7 6 5 5 5 5 6 7 7 8 9 9 10 11 12 13 14 14 15 16 17 18 19 20 20 21 22 22 23 23 24
23 21 19 18 17 15 14 13 11 10 9 9 8 7 7 6 6 6 7 8 8 9 10 10 11 12 13 14 15 16 16 17 18 19 20 21 22 23 23 24 24 24 25
24 22 21 20 18 17 16 14 13 12 11 10 9 9 8 8 8 8 8 9 9 10 11 12 12 13 14 15 16 17 18 19 20 21 22 23 24 24 25 25 26 26 26
26 24 23 21 20 19 17 16 15 13 12 11 11 10 10 10 10 10 10 10 11 11 12 13 14 15 15 16 17 18 20 21 22 23 23 24 25 26 26 27 27 28 28
28 26 24 23 22 21 19 18 16 15 14 13 13 12 12 12 12 12 12 12 13 13 13 14 15 16 17 18 19 20 21 22 23 24 25 26 27 28 28 29 29 30 30
31 29 27 25 24 23 21 20 18 17 16 15 15 14 14 14 14 14 14 14 15 15 15 15 16 17 18 19 20 22 23 24 25 26 27 28 29 30 30 31 32 32 32
34 32 30 28 27 25 24 22 21 20 19 18 17 16 16 16 16 16 16 16 17 17 17 17 18 19 20 21 22 23 24 26 27 28 29 30 31 32 33 33 33 34 34
36 34 32 30 29 28 26 25 23 22 21 20 19 19 19 19 19 19 19 19 19 19 19 19 20 21 22 23 24 25 26 27 29 30 31 32 33 34 35 35 35 35 35
38 36 34 33 32 30 29 27 26 25 24 23 22 22 21 21 21 21 21 21 21 21 21 22 22 23 24 25 26 27 28 30 31 32 33 34 35 36 36 36 36 36 36
39 38 36 35 34 33 32 30 29 28 27 26 25 25 24 24 24 24 24 24 24 23 24 24 25 25 26 27 28 29 30 32 33 34 35 36 37 38 38 38 37 37 37
41 40 39 38 37 36 35 34 33 31 30 29 29 28 28 27 27 27 27 27 27 26 26 27 27 28 29 30 31 31 32 33 35 36 37 38 39 39 39 39 39 38 38
43 42 41 40 39 38 38 37 36 35 34 33 32 31 31 31 30 30 30 30 29 29 29 30 30 31 32 32 33 34 35 36 37 38 39 40 41 40 40 40 40 39 39
44 43 43 42 42 41 41 40 40 38 37 37 36 35 34 34 33 33 33 33 32 32 32 33 33 34 34 35 36 36 37 38 39 40 41 42 42 41 41 41 41 40 40
46 45 44 44 44 44 43 43 42 41 40 40 39 38 38 37 36 36 36 36 35 35 35 36 36 36 36 37 38 39 40 40 41 42 42 43 43 42 42 42 42 41 41
48 47 46 45 46 45 45 44 44 44 43 43 42 42 41 40 39 39 38 38 38 38 38 38 38 38 39 40 41 41 41 42 42 43 43 44 43 43 42 42 42 42 41
50 49 48 47 47 47 47 47 46 46 46 46 45 44 43 43 42 42 41 41 40 40 40 40 41 41 41 42 43 44 43 42 42 43 44 44 44 43 43 43 43 42 42
51 50 50 49 49 49 49 49 49 49 48 48 47 46 45 45 44 44 43 43 42 42 42 42 43 43 43 44 45 46 45 44 43 42 42 43 43 44 44 43 43 42 42
52 51 50 50 50 50 50 51 51 50 50 49 48 48 47 47 46 46 45 45 44 44 44 44 44 45 45 45 45 45 46 46 46 44 42 42 43 43 43 42 42 42 42
52 52 52 51 51 51 51 51 51 51 51 51 50 50 49 48 48 48 47 46 46 45 45 45 46 46 46 46 46 46 46 46 46 45 44 43 42 43 42 42 42 42 41
51 51 51 52 52 52 51 51 51 51 51 51 51 50 50 50 50 49 48 48 47 47 47 47 47 47 47 47 47 47 46 46 45 45 44 43 43 42 42 42 42 42 41

GEFSSE_500_meanwind_090.txt.gz
Wind_Speed
16 14 13 12 11 10 9 8 7 6 5 4 4 4 3 3 2 2 2 2 2 2 3 3 4 5 6 7 8 9 9 10 11 11 12 13 13 14 15 16 16 17 17
16 15 14 13 12 11 10 8 7 6 6 5 5 4 4 3 3 2 2 2 2 2 3 3 4 5 6 7 8 9 9 10 10 11 12 13 13 14 15 16 17 17 18
18 16 15 14 13 11 10 9 8 7 6 6 6 5 4 4 3 2 2 2 2 2 3 3 4 5 6 6 7 8 9 10 10 11 12 13 14 15 16 17 17 18 19
19 17 16 15 14 12 11 10 9 8 7 7 6 6 5 4 3 3 2 2 2 2 3 3 4 5 6 6 7 8 9 10 11 12 13 14 15 16 17 18 19 19 20
20 19 17 16 15 14 12 11 10 9 8 8 7 7 6 5 4 3 3 2 2 3 3 4 4 5 5 6 7 8 9 10 11 13 14 15 16 17 18 19 20 20 21
21 20 18 17 16 15 13 12 11 10 10 9 9 8 7 6 5 4 4 3 3 3 4 4 5 5 6 7 8 9 10 11 12 14 15 16 17 19 19 20 21 22 22
22 21 19 18 17 16 15 14 13 12 11 11 10 9 8 7 7 6 5 4 4 4 4 5 5 6 6 7 8 9 10 12 13 15 16 17 18 19 21 21 22 23 24
23 22 20 19 19 17 16 15 14 13 12 12 11 10 10 9 8 7 6 6 5 5 5 6 6 7 7 8 9 10 11 13 14 16 17 18 19 21 22 22 23 24 25
25 23 21 20 20 19 18 17 16 15 14 13 12 11 11 10 9 9 8 7 7 7 7 7 8 8 9 10 11 11 13 14 16 17 18 20 21 22 23 24 25 26 27
27 25 23 22 21 21 20 19 18 17 16 15 14 13 12 12 11 10 10 9 9 9 9 9 9 10 10 11 12 13 14 16 17 18 20 21 23 24 25 26 27 28 29
29 27 25 23 23 22 21 20 20 19 18 17 16 15 14 13 13 12 11 11 11 11 11 11 11 12 12 13 14 15 16 17 19 20 21 23 24 26 27 28 29 30 31
31 29 27 25 24 24 23 22 21 21 20 19 18 17 16 15 14 14 14 13 13 13 13 13 14 14 15 16 17 17 18 19 20 22 23 25 26 27 29 30 31 32 32
33 31 29 27 26 25 25 24 23 23 22 21 20 19 18 17 17 16 16 16 16 16 16 16 16 17 17 18 19 20 21 22 23 24 25 27 28 29 31 32 33 33 34
35 33 31 30 28 27 26 26 26 25 25 23 22 21 20 20 19 18 18 18 18 18 19 19 19 20 20 21 22 22 23 24 25 26 28 29 31 32 33 33 34 35 35
36 35 33 32 30 29 28 28 28 27 27 26 25 24 23 23 22 21 21 21 21 21 21 22 22 22 23 23 24 25 26 27 28 28 30 31 33 34 35 35 36 36 36
39 37 36 34 33 32 31 30 30 30 29 28 28 27 27 26 25 24 24 24 23 23 24 24 25 25 25 26 27 27 28 29 30 31 32 33 34 36 36 37 37 38 38
41 39 38 37 36 35 34 33 32 32 32 31 31 30 30 29 28 27 27 26 26 26 26 27 27 28 28 29 29 29 30 31 32 33 34 35 36 37 38 38 39 39 39
43 42 41 39 38 37 36 35 35 35 35 34 33 33 32 32 31 30 30 30 30 29 29 30 30 30 30 31 31 32 33 33 34 36 37 38 39 39 39 40 40 41 40
45 44 42 42 41 40 39 38 38 38 37 37 36 36 36 35 34 34 33 33 33 33 33 32 32 33 33 33 34 34 35 35 37 38 39 40 41 41 41 42 42 41 41
46 46 45 44 43 42 42 41 40 40 39 39 39 39 39 38 38 38 37 37 36 36 36 36 36 36 36 36 37 37 37 38 39 40 41 42 43 43 43 43 42 42 41
48 47 47 46 45 44 44 43 42 41 41 41 42 42 41 41 41 40 40 40 39 39 39 40 39 39 39 39 39 40 40 41 41 42 43 44 45 44 44 43 43 42 41
50 49 48 47 47 46 46 45 44 43 43 43 43 44 44 44 44 44 43 42 42 42 43 43 42 41 41 42 42 43 42 42 42 43 44 44 45 45 45 45 44 43 41
50 50 50 49 48 48 47 47 47 46 46 46 46 45 45 46 46 47 47 46 45 45 45 45 45 44 44 44 45 46 46 45 46 45 44 44 44 44 45 45 44 43 42
51 50 50 51 50 50 50 50 49 49 48 48 48 48 48 48 48 48 49 49 48 48 48 48 48 47 47 47 47 47 48 49 48 47 46 45 45 45 45 44 43 43 43
50 50 50 51 51 51 51 51 51 51 51 50 49 50 50 49 50 50 51 51 51 51 51 51 51 50 49 49 48 48 49 48 48 48 47 46 46 45 44 43 43 43 42
50 50 51 51 51 51 51 51 51 52 51 51 52 52 52 51 51 51 51 52 53 53 53 53 52 51 50 49 50 49 49 48 48 47 47 46 46 45 44 43 43 42 41

GEFSSE_500_meanwind_096.txt.gz
Wind_Speed
16 14 12 11 9 8 7 6 5 6 5 5 5 5 5 5 5 5 5 4 4 4 4 3 3 2 3 3 3 3 4 4 5 6 7 8 9 10 11 12 13 13 14
17 15 14 12 10 9 8 7 7 7 6 6 6 6 6 6 6 6 5 5 5 4 4 3 3 3 3 3 3 3 4 4 5 6 7 8 9 10 11 12 13 14 15
19 17 15 14 12 11 10 9 8 8 8 8 7 7 7 7 6 6 6 5 5 4 4 3 3 3 3 3 3 3 3 4 5 6 7 8 9 11 12 13 14 15 16
21 19 17 15 13 12 11 10 10 9 9 9 8 8 8 8 7 7 6 6 5 5 4 4 4 4 3 3 3 3 4 4 5 6 7 9 10 11 12 13 14 15 17
22 20 18 16 15 14 12 12 11 11 10 10 10 10 9 9 8 8 7 7 6 5 5 5 5 4 4 4 4 4 4 5 6 7 8 9 10 12 13 14 15 16 18
24 22 20 18 16 15 14 13 12 12 12 12 11 11 11 10 9 9 8 8 7 6 6 6 6 5 5 5 4 5 5 6 6 7 8 10 11 12 14 15 16 18 19
25 23 21 19 18 16 15 15 14 13 13 13 13 12 12 12 11 10 10 9 8 8 7 7 7 6 6 6 6 6 7 7 8 8 9 10 12 13 15 16 17 19 20
26 24 23 21 19 18 17 16 15 15 14 14 14 14 14 13 13 12 11 10 10 9 9 8 8 8 7 7 7 7 8 8 9 10 11 12 13 14 16 17 19 20 21
27 26 24 22 20 19 18 18 17 16 16 16 16 15 15 15 14 13 13 12 12 11 10 10 10 9 9 9 9 9 10 10 11 12 12 13 15 16 17 19 20 22 23
28 27 25 24 22 20 19 19 18 18 17 17 17 17 16 16 16 15 14 14 13 13 12 12 11 11 11 11 11 11 12 12 13 14 14 15 17 18 19 20 22 23 24
30 28 26 24 23 22 21 20 19 19 19 19 18 18 18 18 17 16 16 15 15 14 14 13 13 13 13 13 13 14 14 15 15 16 17 17 19 20 21 22 24 25 26
31 29 28 26 24 23 22 21 20 20 20 20 20 20 20 19 18 18 18 17 17 16 16 15 15 15 15 15 16 16 17 17 18 18 19 20 21 22 23 25 26 27 28
33 32 30 28 26 24 23 22 22 21 21 21 21 21 21 20 20 20 19 19 19 18 18 18 18 18 18 18 18 19 19 20 20 21 21 22 23 24 25 27 28 29 30
35 34 32 29 27 26 25 24 23 22 22 22 22 22 23 22 22 22 21 21 21 21 20 20 20 20 20 21 21 21 22 22 23 24 24 25 26 27 28 29 30 31 32
36 35 33 30 28 27 26 26 25 24 24 24 24 24 24 24 24 23 23 23 23 23 23 23 23 23 23 23 24 24 25 25 25 26 27 27 28 29 30 31 32 33 33
37 35 34 32 30 29 29 28 27 27 26 25 25 26 26 26 26 26 26 26 26 25 25 25 25 25 25 25 26 26 27 27 28 28 29 29 30 32 33 33 34 35 35
38 36 35 34 33 32 31 30 29 29 29 28 28 28 28 28 28 28 28 28 28 27 27 27 28 28 28 28 28 28 29 30 30 30 31 32 32 34 35 36 36 37 37
40 39 37 36 35 34 33 32 32 31 31 30 30 30 30 30 30 30 30 30 30 30 30 30 30 30 30 30 30 31 31 32 33 33 34 35 35 36 37 38 38 38 38
42 41 40 39 37 37 36 36 35 34 34 33 33 33 32 32 32 32 32 33 32 32 32 32 32 32 32 33 33 33 34 35 36 37 37 38 38 39 40 40 40 40 39
44 43 43 41 40 40 39 38 38 37 36 36 36 35 35 35 35 34 34 34 34 34 34 35 35 35 35 36 36 36 36 37 38 38 39 40 41 41 42 42 42 41 40
45 45 45 44 43 43 42 41 41 40 40 40 39 38 37 37 37 37 36 36 37 37 37 37 38 38 38 39 39 39 39 39 40 41 42 43 43 44 44 44 44 43 42
46 47 46 46 45 44 44 43 44 44 43 42 41 41 41 40 40 40 39 39 39 39 39 40 40 40 40 41 41 41 40 41 42 43 44 45 45 45 45 45 44 43 42
46 46 47 47 47 47 46 46 45 45 45 44 43 43 42 42 42 42 42 43 43 43 42 42 42 42 42 43 43 44 44 44 44 44 45 45 46 45 45 45 44 43 42
47 47 48 48 48 49 49 48 48 48 47 46 46 45 45 45 45 45 45 46 46 45 45 44 44 44 44 44 45 46 46 46 47 46 46 46 45 45 45 44 43 42 42
48 48 49 49 49 50 50 50 49 49 49 49 48 48 48 47 47 46 46 47 47 47 46 46 46 46 46 46 47 47 47 48 48 48 47 46 45 45 44 44 43 42 42
47 48 49 49 49 50 50 50 51 50 50 49 50 50 49 49 49 48 48 48 48 48 47 47 47 47 47 47 47 48 48 48 48 48 47 46 45 45 44 44 43 43 42

GEFSSE_500_meanwind_102.txt.gz
Wind_Speed
21 18 16 14 12 11 10 9 8 7 7 6 5 5 4 4 4 4 4 5 5 5 6 5 5 5 4 4 4 4 4 4 4 4 5 6 7 8 9 10 11 12 13
23 20 18 16 14 13 12 11 9 8 8 7 6 6 6 5 5 5 5 5 5 6 5 5 5 4 4 4 4 4 3 4 4 5 5 6 7 8 9 10 11 12 14
25 22 20 18 16 15 13 12 11 10 9 8 8 7 7 6 6 6 6 6 6 6 6 5 5 5 5 4 4 4 3 4 4 5 6 7 8 8 9 10 12 13 14
27 24 22 20 18 17 15 14 13 12 11 10 9 8 8 8 7 7 7 7 6 6 6 6 6 5 5 5 5 4 4 5 5 6 6 7 8 9 10 11 12 14 15
29 26 24 21 20 19 17 16 14 13 12 11 11 10 9 9 9 8 8 7 7 7 7 7 7 6 6 6 6 5 5 6 6 7 7 8 9 10 11 12 13 14 16
31 29 26 24 22 20 19 17 16 15 14 13 12 11 11 10 10 9 9 8 8 8 8 8 8 7 7 7 7 7 7 7 7 8 9 9 10 11 12 13 14 15 16
33 31 28 25 24 22 20 19 17 16 15 14 13 13 12 11 11 10 10 10 9 9 9 9 9 8 8 8 8 8 8 8 9 9 10 11 11 12 13 14 15 16 17
35 33 30 27 25 24 22 20 19 18 16 15 15 14 13 13 12 12 11 11 11 11 10 10 10 10 10 9 9 9 10 10 11 11 12 12 13 14 15 15 17 18 19
37 35 32 29 27 25 23 21 20 19 18 17 16 15 15 14 14 13 13 13 13 12 12 12 12 12 11 11 11 11 12 12 12 13 14 14 15 16 16 17 18 19 20
39 36 33 31 28 26 24 23 21 20 19 18 17 17 16 16 16 15 15 15 15 14 14 14 14 13 13 13 13 13 14 14 15 15 16 16 17 18 18 19 20 21 22
39 37 34 31 29 27 25 24 22 21 20 19 18 18 18 17 17 17 16 16 16 16 16 16 15 15 15 15 15 16 16 16 17 17 18 18 19 20 20 21 22 23 24
38 36 34 32 30 28 26 24 23 22 21 21 20 19 19 18 18 18 18 18 18 18 18 18 18 17 17 18 18 18 18 19 19 19 20 20 21 22 22 23 24 25 26
39 37 35 34 32 29 27 25 24 23 23 22 22 21 20 20 20 19 19 19 19 19 19 20 20 20 20 20 20 20 21 21 21 21 22 22 23 23 24 25 25 27 28
38 36 34 33 32 30 28 27 26 25 24 24 23 23 22 22 21 21 21 21 21 21 21 22 22 22 22 22 22 22 23 23 23 24 24 25 25 25 26 27 27 29 30
36 35 35 34 32 31 29 28 26 26 25 25 24 24 23 23 23 23 23 23 23 23 23 24 24 24 25 25 25 25 25 25 26 26 26 27 27 28 29 29 30 31 32
34 34 34 34 34 33 31 30 29 28 27 26 25 25 25 24 24 24 25 25 25 25 25 26 26 26 26 27 27 27 27 27 28 29 29 29 30 30 31 31 32 33 34
35 35 34 34 34 34 33 32 30 29 28 27 27 27 27 27 26 26 26 26 27 27 27 27 28 28 29 29 29 29 29 30 30 30 31 32 32 32 33 34 34 35 36
36 35 34 36 36 35 35 35 33 32 31 30 29 29 29 29 29 29 29 29 29 29 29 29 30 30 30 31 31 31 31 32 32 33 33 33 34 34 35 36 36 37 38
38 37 36 36 37 37 37 37 36 35 33 32 32 31 31 31 31 31 31 31 30 31 31 31 32 32 32 32 33 33 34 35 35 35 35 36 36 36 37 38 39 40 40
38 39 39 38 38 40 40 40 39 38 36 35 34 34 34 34 33 33 33 33 33 33 33 34 34 34 34 34 35 35 36 37 37 38 38 38 38 39 40 40 41 42 42
40 40 40 39 39 38 40 41 41 40 39 38 36 37 37 36 36 35 35 35 35 35 36 36 36 36 37 38 38 38 38 38 39 39 39 39 40 41 42 43 43 44 43
41 41 41 42 42 40 40 40 41 41 41 40 39 39 39 38 38 38 38 38 38 38 38 38 38 39 40 40 40 40 40 39 40 41 42 42 43 43 44 44 45 45 44
42 42 42 43 43 43 42 40 40 41 42 42 41 41 41 40 39 39 39 40 40 40 40 41 41 41 41 41 41 42 42 42 42 42 42 43 43 44 45 45 45 46 45
44 43 43 43 43 43 43 43 43 42 42 42 43 42 42 42 41 41 41 42 42 43 43 43 42 42 42 42 42 43 44 44 44 43 43 44 44 44 44 45 45 45 44
45 44 44 44 45 45 44 44 44 45 44 44 44 44 44 44 43 43 44 44 44 44 44 43 43 44 44 45 45 45 45 44 45 45 44 44 44 45 45 45 44 44 43
45 45 45 44 45 46 46 46 46 46 45 45 45 45 46 46 46 45 45 46 46 46 46 47 47 47 47 47 47 46 46 46 46 46 46 45 45 45 45 45 44 44 44

GEFSSE_500_meanwind_108.txt.gz
Wind_Speed
28 25 22 20 18 16 15 13 12 12 11 10 9 9 8 8 7 5 4 3 3 3 3 2 2 2 2 2 1 1 1 1 2 2 3 4 5 6 7 8 9 10 11
31 28 25 23 21 18 17 15 14 13 12 12 11 10 9 9 8 7 6 5 4 3 3 2 2 2 2 2 1 1 2 2 2 3 4 5 5 6 7 8 9 10 12
32 30 27 25 23 20 18 17 16 15 14 13 12 11 11 10 9 8 7 6 5 4 4 3 3 3 3 2 2 2 3 3 4 4 5 5 6 7 8 9 10 11 12
34 32 29 27 25 23 20 19 17 16 16 15 14 13 12 11 10 9 8 7 6 6 5 5 4 4 4 3 3 4 4 4 5 5 6 6 7 8 9 10 11 12 13
36 34 31 29 27 25 23 21 20 18 17 17 16 15 14 13 12 11 10 9 8 7 7 6 6 5 5 5 5 5 5 6 6 6 7 8 8 9 10 11 12 13 14
38 36 33 31 29 27 25 23 21 20 19 18 18 16 15 14 13 12 11 10 10 9 8 8 7 7 6 7 6 7 7 7 7 8 8 9 10 11 12 13 13 14 15
40 38 35 33 31 29 26 25 23 22 21 20 19 18 17 16 15 14 13 12 11 10 9 9 9 8 8 8 8 8 8 9 9 10 10 11 12 12 14 14 15 16 17
42 40 37 35 33 31 28 26 25 24 23 22 20 19 19 18 16 15 14 14 13 12 11 11 10 10 10 10 10 10 10 11 11 12 12 13 14 14 15 16 17 18 19
44 42 39 37 35 33 30 28 27 25 24 24 22 21 20 19 18 17 16 15 15 14 13 13 12 12 12 12 12 12 12 13 13 14 14 15 16 16 17 18 19 20 21
45 43 41 39 37 35 33 31 29 28 26 25 24 23 22 21 20 19 18 17 16 16 15 15 14 14 14 14 14 15 15 15 16 16 17 17 18 19 19 20 21 22 22
46 44 42 41 39 37 35 33 31 30 28 27 26 25 24 23 22 21 20 19 18 18 17 17 16 16 16 16 16 17 17 18 18 19 19 20 21 21 21 22 23 24 24
47 45 43 42 41 39 38 36 34 32 30 29 28 27 26 25 24 23 22 21 20 20 19 19 18 18 18 18 19 19 20 20 21 21 22 22 23 23 23 24 25 25 26
46 45 44 43 42 41 39 38 36 34 32 31 30 29 28 27 26 25 24 23 22 22 21 21 21 20 20 20 21 21 22 22 23 23 24 24 25 25 26 26 27 27 28
47 47 44 43 43 42 41 39 37 35 34 33 31 30 29 28 27 26 25 25 24 24 23 23 23 23 22 23 23 23 24 24 25 25 26 26 27 27 28 28 28 29 30
46 47 46 43 42 42 41 40 38 36 35 34 33 32 31 30 29 28 28 27 26 25 25 25 24 24 25 25 25 25 26 26 26 27 27 28 28 29 29 30 30 31 31
46 43 43 44 41 41 41 40 39 37 37 36 34 33 32 31 31 30 30 29 28 27 27 27 26 26 26 26 27 27 27 27 28 28 29 30 30 31 31 32 32 32 32
44 42 41 42 41 42 43 42 41 40 39 38 36 34 33 33 33 32 32 31 30 29 29 29 29 29 29 29 29 29 29 29 30 30 31 32 32 32 33 33 33 34 34
42 42 43 43 42 43 45 45 43 41 40 39 38 37 36 36 35 35 34 33 32 32 31 31 31 31 31 31 31 31 31 32 32 32 33 34 34 34 35 35 35 35 36
42 41 43 44 44 43 44 45 45 44 43 41 40 39 38 38 38 37 36 35 34 34 33 33 33 33 33 33 33 33 34 34 34 34 35 35 36 36 36 36 37 37 38
40 40 41 41 43 43 43 43 43 43 43 43 42 41 41 40 40 39 38 37 37 36 35 35 36 35 35 35 35 35 35 36 36 36 36 36 37 37 37 38 38 39 39
40 38 38 39 39 40 41 40 41 42 43 43 43 43 41 40 40 41 40 39 39 38 37 37 37 37 37 37 37 36 36 37 36 37 37 37 38 39 39 40 40 40 40
41 39 37 37 39 40 40 40 41 43 44 44 43 42 42 42 42 42 41 41 40 39 38 38 39 39 39 38 38 38 38 38 38 38 39 38 39 39 40 40 40 40 41
39 39 38 39 39 41 40 41 42 43 44 44 44 44 44 43 43 43 43 42 42 41 41 40 40 39 39 39 39 39 39 39 38 38 39 40 41 42 42 42 42 42 43
39 39 39 39 40 41 40 39 41 44 45 45 46 47 46 45 44 45 44 44 45 44 42 41 40 40 40 40 40 41 41 42 41 41 42 43 43 42 42 42 43 43 44
37 37 37 38 39 40 40 40 41 43 44 45 46 47 47 46 46 46 46 45 45 44 44 44 43 42 42 42 42 43 43 44 44 44 43 43 42 42 42 43 44 44 44
38 37 38 37 38 39 40 41 41 42 44 45 46 46 47 47 47 47 47 46 45 45 45 44 44 44 43 43 44 44 44 44 45 44 43 43 43 43 43 43 44 44 45

GEFSSE_500_meanwind_114.txt.gz
Wind_Speed
32 30 28 26 24 22 20 17 16 15 14 13 12 11 11 10 9 9 8 7 6 5 4 3 3 2 2 2 1 1 1 1 1 1 2 3 4 5 6 8 9 10 10
34 33 31 29 26 24 22 20 18 17 15 15 14 13 12 11 11 10 9 8 7 6 5 5 4 4 3 3 2 2 2 2 2 2 3 4 5 6 7 8 9 10 11
36 35 33 31 29 26 25 23 21 19 18 17 15 15 14 13 12 12 11 10 9 8 7 6 5 5 5 4 4 3 3 3 3 3 4 5 6 7 8 9 10 11 12
38 37 36 33 31 29 27 25 23 21 20 18 17 16 15 14 14 13 12 11 10 9 9 8 7 7 6 6 5 5 5 5 5 5 5 6 7 8 9 10 11 12 13
40 39 38 36 34 31 29 27 25 23 22 21 19 18 17 16 15 15 14 13 12 11 11 10 9 8 8 7 7 7 7 7 7 7 7 8 8 9 10 11 12 13 14
41 40 39 38 36 34 32 29 27 25 24 23 21 20 19 18 17 16 15 15 14 13 12 12 11 10 10 9 9 9 9 9 9 9 9 10 10 11 12 13 14 14 15
42 41 41 40 38 36 34 32 30 28 26 25 23 22 21 20 19 18 17 16 15 15 14 13 13 12 11 11 11 11 11 10 10 10 11 11 12 13 14 14 15 16 17
43 42 43 42 40 39 37 34 32 30 28 26 25 24 23 22 21 20 19 18 17 16 16 15 14 14 13 13 12 12 12 12 12 13 13 13 14 15 15 16 17 18 19
46 44 44 43 42 40 39 36 34 32 30 28 27 26 24 24 23 22 21 20 19 19 18 17 16 16 15 15 14 14 14 15 14 15 15 16 16 17 18 18 19 20 20
48 46 45 45 44 42 40 38 36 34 32 30 29 28 26 26 25 24 23 22 21 21 20 19 18 18 17 17 16 16 16 16 16 17 17 18 18 19 20 20 21 22 22
50 48 47 46 45 43 42 41 38 36 34 32 31 30 29 27 26 26 25 24 23 23 22 21 20 20 19 19 19 19 19 18 18 19 20 20 21 21 22 22 22 23 24
51 50 48 47 46 45 44 43 41 38 36 34 32 31 30 29 28 27 26 26 25 24 24 23 22 22 22 21 21 21 21 21 21 21 22 22 23 23 23 24 24 25 25
53 52 49 48 48 46 45 44 43 41 39 36 34 33 32 31 30 29 28 28 27 26 25 25 24 24 24 23 23 23 23 23 23 24 24 24 25 25 25 26 26 26 27
52 53 51 48 48 47 46 45 43 42 41 39 37 35 34 33 32 31 31 29 28 28 27 27 26 26 25 26 25 25 26 26 26 26 26 26 26 27 27 27 28 28 28
51 51 52 50 48 47 47 48 46 44 42 41 40 38 36 36 35 33 32 31 30 30 29 28 28 27 27 27 27 28 28 28 28 28 28 29 29 29 29 29 29 29 29
51 51 51 52 50 48 48 48 47 46 45 44 43 40 39 37 36 35 34 33 32 32 31 31 30 30 30 29 29 29 30 30 30 30 30 31 31 30 30 30 31 31 31
49 49 48 50 51 48 48 47 47 46 45 45 45 43 41 40 39 38 37 36 35 34 33 32 32 32 31 31 31 31 31 31 31 31 32 32 32 32 32 32 32 33 33
47 47 47 48 48 46 46 45 45 45 44 44 44 43 42 41 39 39 39 39 37 36 35 34 33 33 33 33 33 33 32 32 33 33 33 33 34 34 34 34 34 34 34
46 46 46 46 46 44 43 45 45 44 43 43 44 43 42 41 41 41 41 39 38 37 36 36 35 35 35 35 35 34 34 34 35 34 34 34 35 35 34 34 34 34 35
43 44 46 45 46 46 44 43 44 43 44 43 43 43 42 42 41 40 39 39 38 37 38 38 37 38 37 37 37 36 36 36 37 36 36 36 36 36 35 35 35 35 35
39 40 41 44 44 44 43 42 41 42 44 43 42 42 42 42 42 41 40 39 39 39 39 39 39 39 39 39 39 39 39 39 38 38 38 37 37 37 36 36 36 36 37
37 37 38 40 40 40 39 37 37 40 42 42 42 43 42 42 42 42 42 42 41 41 42 41 41 41 41 41 41 41 41 40 40 39 38 38 38 38 38 37 37 37 38
34 35 35 39 40 38 38 37 35 37 39 42 42 42 42 43 44 45 45 45 45 45 45 44 44 43 43 42 42 42 42 42 41 40 40 40 39 38 38 39 39 39 39
33 33 32 33 36 37 38 38 36 37 37 38 41 42 43 45 46 47 47 47 47 47 47 46 47 46 46 45 44 44 44 42 41 41 41 41 40 40 40 40 40 41 40
29 30 30 31 33 34 35 36 37 37 37 37 38 40 43 46 48 49 49 49 49 49 49 48 48 48 48 47 47 46 46 44 44 43 42 41 42 41 41 41 40 40 40
25 27 28 30 31 32 33 35 35 35 38 38 37 39 42 45 46 48 49 50 49 48 49 49 49 49 48 48 47 47 46 45 44 43 43 42 41 41 41 41 41 41 42

GEFSSE_500_meanwind_120.txt.gz
Wind_Speed
32 31 28 27 25 23 21 19 17 16 14 13 12 12 11 10 10 10 9 9 8 7 7 6 6 6 5 5 4 4 4 4 3 3 3 3 3 4 4 6 7 7 8
33 32 31 29 28 26 24 22 20 19 17 16 14 13 13 12 12 11 11 10 9 9 8 7 7 6 6 6 6 5 5 5 5 5 5 4 5 5 6 7 7 8 9
34 33 32 31 30 29 27 25 23 21 20 18 17 15 15 14 13 13 12 12 11 10 9 9 8 8 7 7 7 7 7 7 7 7 6 6 6 7 7 8 9 9 10
35 34 33 33 33 31 29 27 26 24 22 21 19 18 16 16 15 14 14 13 13 12 11 11 10 9 9 9 9 9 9 8 8 8 8 8 8 8 9 10 10 11 12
35 34 34 34 34 33 32 30 28 27 25 23 22 20 19 17 17 16 15 15 14 13 13 12 12 11 11 10 10 11 11 10 10 10 10 10 10 10 11 11 12 13 13
37 35 34 34 35 35 34 33 31 29 27 26 24 22 21 20 19 18 17 17 16 15 15 14 14 13 13 12 12 12 12 12 12 12 11 12 12 12 13 13 14 14 15
39 37 36 35 35 35 36 35 33 32 30 28 26 24 23 22 21 20 19 19 18 17 17 16 16 15 15 15 14 14 14 14 14 13 13 13 14 14 14 15 16 16 17
40 40 38 38 37 36 36 36 35 34 32 31 29 27 25 24 23 23 22 21 20 19 19 18 17 17 17 17 16 16 16 15 15 15 15 15 16 16 16 17 17 18 19
42 41 40 39 39 38 38 38 37 36 34 33 32 30 28 26 25 24 23 22 21 21 20 20 19 19 18 18 18 18 17 17 17 17 17 17 18 18 18 19 20 20 21
44 43 42 41 40 40 39 39 39 38 36 35 34 32 30 28 27 26 25 24 23 22 22 21 21 20 20 20 20 20 20 19 19 19 19 19 20 20 21 21 22 22 23
45 45 44 43 43 42 41 40 40 39 39 37 36 34 33 31 29 28 27 25 25 24 24 23 23 22 22 22 22 22 22 21 21 21 22 22 22 22 23 23 24 24 24
46 47 45 43 44 44 43 41 41 41 40 40 38 36 35 33 32 30 28 27 27 27 26 26 25 24 24 24 24 24 24 24 24 24 24 24 24 24 25 25 25 26 26
46 46 47 45 44 45 45 44 42 42 42 41 40 39 37 36 34 32 31 30 29 29 28 28 27 27 26 26 26 26 26 26 26 26 25 26 26 26 26 27 27 27 28
47 47 46 47 46 46 46 46 44 42 42 42 41 40 39 38 37 35 33 32 32 31 30 30 29 29 29 28 28 27 27 28 28 28 28 28 29 29 29 29 29 29 29
46 47 48 47 46 46 46 48 46 44 43 42 43 42 41 40 39 37 36 35 34 34 33 32 32 31 31 30 29 29 30 30 30 30 30 30 30 31 31 31 31 31 31
46 46 47 47 47 47 48 49 48 47 45 44 43 43 43 42 41 40 38 37 35 35 34 34 33 33 33 33 32 32 32 32 32 32 32 32 32 32 32 32 32 32 32
46 46 46 47 48 48 47 48 49 49 48 46 45 44 43 43 42 41 40 39 37 36 35 35 35 35 34 34 34 34 34 34 34 33 34 34 34 34 33 33 32 32 33
46 46 47 46 48 48 48 48 48 48 48 47 45 44 44 44 42 42 41 40 38 37 36 36 35 35 34 35 35 36 36 35 35 36 36 35 35 35 34 34 34 34 35
46 46 47 47 48 49 48 48 48 47 46 46 46 45 45 44 43 43 42 41 40 39 39 38 37 36 36 37 37 37 37 37 37 37 36 36 36 36 36 36 37 37 37
43 44 45 45 45 45 45 44 46 47 47 45 45 44 44 44 44 43 42 42 42 41 41 40 39 38 39 39 39 40 39 39 39 39 39 39 39 39 40 40 40 39 39
41 42 44 43 43 43 42 42 43 44 45 45 43 43 42 43 44 44 42 42 42 42 42 42 41 40 40 41 42 42 41 41 41 42 42 42 42 42 42 42 42 41 40
38 39 39 40 42 43 44 45 44 43 43 44 44 42 41 42 43 43 43 42 43 43 44 44 43 42 43 43 43 43 43 43 43 44 44 44 44 44 43 43 43 42 41
35 37 37 38 40 42 42 43 42 41 41 43 43 43 40 41 41 41 42 42 43 43 44 45 44 44 45 45 45 46 45 44 44 45 45 45 45 46 45 45 44 43 43
29 32 33 34 36 37 40 40 39 38 40 39 39 40 40 40 40 41 41 41 42 43 45 46 46 46 46 47 47 46 47 47 47 47 47 47 47 46 45 45 45 44 44
23 27 29 31 31 31 34 36 36 35 37 38 38 38 39 39 39 40 40 42 43 44 45 46 47 47 48 49 49 48 48 49 49 49 49 48 46 46 46 46 46 46 45
19 23 26 29 29 29 30 32 33 34 35 37 38 37 37 38 38 39 40 41 42 43 45 46 47 48 48 49 50 51 50 49 49 49 49 48 47 46 46 47 47 45 45

GEFSSE_500_meanwind_126.txt.gz
Wind_Speed
27 27 27 27 26 24 23 21 19 17 15 13 12 10 9 8 8 7 7 6 6 6 6 6 6 5 5 5 5 5 5 5 5 5 6 6 6 6 7 8 8 9 10
29 29 28 28 27 26 25 24 22 20 18 16 14 13 11 10 10 9 8 8 7 7 7 7 6 6 6 6 6 6 6 7 7 7 7 7 7 8 8 9 9 10 11
31 30 30 29 29 28 27 26 24 22 21 19 17 16 14 13 12 11 10 10 9 8 8 8 8 8 8 8 8 7 8 8 8 8 9 9 9 9 10 10 11 11 12
32 31 31 31 30 30 29 28 27 25 23 21 20 18 17 15 14 13 12 11 11 10 10 9 9 9 9 9 9 9 9 9 10 10 10 10 11 11 11 12 12 13 14
34 33 33 32 31 31 30 29 28 27 26 24 22 21 19 18 17 16 14 14 13 12 12 11 11 11 11 11 11 11 11 11 12 12 12 12 12 13 13 14 14 15 15
35 35 34 33 32 32 32 31 30 29 28 27 25 23 22 20 19 18 17 16 15 14 13 13 13 12 12 12 13 13 13 13 13 14 14 14 14 15 15 16 16 17 17
37 36 35 35 34 33 32 32 32 31 30 28 27 26 24 23 22 20 19 18 17 16 15 15 15 14 14 14 14 15 15 15 15 15 15 16 16 16 17 17 18 18 19
39 38 37 36 36 35 34 33 33 33 32 31 29 28 27 25 24 23 22 20 19 18 17 17 17 16 16 16 16 16 16 16 17 17 17 18 18 18 19 19 20 20 21
41 40 39 38 37 37 36 35 34 34 33 32 32 31 29 28 26 25 24 23 22 20 19 19 19 18 18 18 18 18 18 19 19 19 19 19 20 20 21 21 22 23 23
42 41 39 40 38 38 37 37 36 35 34 34 34 33 31 30 28 27 27 25 24 23 22 21 20 20 20 20 20 20 20 20 21 21 21 22 22 22 23 23 24 24 24
44 43 41 41 40 39 39 39 38 37 35 35 35 35 33 32 31 29 28 28 26 25 24 24 23 22 22 22 22 22 22 22 23 23 23 24 24 25 25 25 25 26 26
46 44 43 41 41 40 40 40 39 39 38 37 37 36 35 34 33 31 30 30 28 27 26 26 25 25 24 24 24 24 24 24 24 25 25 25 26 26 26 27 27 28 28
47 46 45 43 42 41 40 40 41 41 40 39 38 38 36 35 34 33 32 31 30 29 29 28 28 27 27 27 26 26 26 26 26 26 27 27 28 28 29 29 29 30 30
49 48 46 45 44 42 42 41 42 41 40 39 38 38 38 37 36 35 34 33 33 32 31 31 30 29 29 29 28 28 27 28 28 28 29 29 30 31 31 32 31 31 32
48 48 48 46 45 43 42 42 42 41 41 40 38 38 39 39 38 37 36 35 35 34 34 33 32 31 31 30 29 29 29 30 30 30 30 31 31 32 33 33 33 33 34
48 48 48 46 45 45 43 42 43 42 42 43 41 40 40 40 39 39 38 37 36 36 35 35 34 34 33 32 31 31 31 32 31 31 32 32 33 33 34 34 34 35 35
49 48 48 48 47 46 46 44 44 43 43 44 44 42 41 41 41 40 39 38 38 37 37 37 36 35 35 34 34 34 34 34 34 34 34 34 34 34 35 35 35 36 36
50 49 49 49 49 48 48 47 46 45 43 44 45 44 43 42 41 41 40 39 39 39 38 38 38 37 37 37 36 36 36 36 36 36 36 36 36 36 36 37 37 37 38
48 49 50 50 49 49 48 47 47 47 46 46 46 46 44 42 42 42 41 40 40 39 39 39 39 39 39 38 38 38 38 38 38 39 39 39 38 39 39 39 39 40 40
45 47 48 48 48 48 48 47 47 46 46 46 45 46 46 45 44 43 42 41 41 41 40 40 40 40 40 40 40 39 40 41 41 41 41 41 41 41 41 41 41 42 42
43 45 46 45 46 47 47 46 46 45 46 45 44 45 46 44 44 44 43 42 42 42 41 41 42 42 42 43 43 43 43 43 43 44 44 44 43 43 43 44 44 45 45
39 42 43 43 43 44 45 46 45 45 44 44 43 43 44 43 43 43 43 43 43 42 42 43 43 43 43 44 45 45 45 45 44 45 45 45 45 45 46 46 46 46 47
35 38 40 40 40 42 42 42 44 44 44 44 43 43 44 44 43 43 42 43 43 43 43 44 44 44 45 46 46 47 46 46 46 46 45 46 47 47 47 47 47 48 48
31 33 34 36 38 39 39 40 41 42 44 44 42 41 41 42 42 42 43 43 43 43 43 44 44 45 45 46 46 47 47 48 48 47 46 46 46 47 48 48 48 48 49
27 28 30 32 34 36 36 36 38 39 40 41 41 41 40 41 42 42 42 42 42 43 44 44 44 46 46 46 47 47 47 47 48 48 48 47 47 48 49 50 49 49 50
21 23 26 27 29 30 31 32 34 35 36 38 39 41 41 41 41 41 40 41 43 44 45 45 45 46 46 46 47 47 48 48 48 49 49 49 49 49 50 51 50 50 50

GEFSSE_500_meanwind_132.txt.gz
Wind_Speed
23 22 22 21 20 20 20 19 19 18 17 16 14 13 12 11 9 8 7 6 5 4 4 3 3 3 3 3 3 3 3 3 4 4 5 6 6 7 7 8 8 9 10
25 24 23 23 22 21 21 20 20 20 19 18 17 15 14 13 12 10 9 8 7 6 5 5 4 4 4 4 4 4 5 5 5 6 6 7 7 8 8 9 10 11 11
27 26 25 24 24 24 23 22 21 21 20 20 19 18 16 15 14 13 11 10 9 8 7 7 6 6 6 6 6 6 6 7 7 7 8 8 9 9 10 10 11 12 13
30 29 28 27 26 25 25 24 24 23 22 22 21 20 18 17 16 15 13 13 12 11 10 9 8 8 8 7 8 8 8 9 9 9 10 10 10 11 11 12 13 13 14
32 31 30 30 29 28 26 26 26 25 24 24 23 22 21 19 18 17 16 15 14 13 12 11 11 10 10 9 9 10 10 10 11 11 11 12 12 12 13 14 14 15 16
34 34 33 32 31 30 29 28 27 27 26 25 25 24 23 22 20 19 18 17 16 15 14 14 13 12 12 12 11 11 11 12 12 12 13 13 14 14 15 16 16 17 18
36 36 35 34 33 32 31 30 29 28 28 27 27 26 25 24 23 21 20 20 19 18 17 16 16 15 14 14 13 13 13 14 14 14 15 15 16 16 17 17 18 19 20
38 37 36 35 34 33 33 32 31 30 30 29 29 28 28 27 26 24 23 22 21 20 19 19 18 17 17 16 16 16 16 16 16 16 17 17 18 18 19 19 20 20 21
41 39 38 38 36 35 35 34 33 31 31 31 30 30 30 29 28 27 26 24 23 23 22 21 20 19 19 19 18 18 18 18 18 19 19 19 20 20 21 21 21 22 22
43 41 40 40 39 38 36 36 35 34 33 33 32 31 30 30 30 29 28 27 26 25 24 23 22 22 21 21 20 20 20 20 20 21 21 21 22 22 23 23 23 24 24
45 44 43 42 41 40 39 38 37 36 35 34 34 34 33 32 31 31 30 29 28 27 26 25 24 24 23 23 23 22 22 22 23 23 23 24 24 24 24 25 25 26 26
46 46 45 43 42 42 41 40 39 38 37 36 35 35 35 34 34 32 32 31 30 29 28 27 26 26 26 25 25 25 25 25 25 25 26 26 26 26 26 27 27 27 28
48 47 47 46 44 43 43 42 41 40 39 38 37 37 37 36 35 34 33 32 32 31 30 29 29 28 28 28 27 27 27 26 26 27 27 27 27 28 28 28 29 29 29
49 49 49 48 47 46 45 44 43 41 41 40 39 39 38 37 37 35 35 34 33 33 32 31 31 30 30 29 29 29 28 28 28 28 28 29 29 29 30 30 30 30 31
49 50 49 49 49 47 47 46 45 42 41 41 40 40 39 39 38 38 37 36 35 34 34 33 33 32 31 31 31 31 31 30 30 31 31 31 31 31 31 31 32 33 33
49 49 49 50 50 49 48 48 46 45 43 42 42 42 41 40 39 38 39 37 36 35 35 35 35 34 33 33 32 33 33 32 32 32 32 32 32 33 33 34 34 35 35
49 49 50 50 50 50 49 49 48 47 46 44 43 44 43 41 40 40 39 39 38 37 36 36 36 36 35 35 35 34 34 34 34 33 33 34 34 34 35 35 36 37 37
49 49 49 50 51 51 50 49 48 47 48 47 46 45 44 43 42 41 40 39 39 38 38 38 37 37 37 37 37 36 36 36 35 35 34 35 36 37 37 38 38 39 39
48 49 50 51 52 52 51 50 50 49 49 48 48 46 46 45 44 43 43 41 41 40 39 39 39 39 38 38 38 38 38 37 37 37 37 37 37 38 39 40 40 40 41
46 48 50 51 50 50 51 51 50 50 50 49 48 47 46 46 44 44 44 43 42 42 41 41 41 40 40 40 40 40 39 39 38 39 39 39 40 40 41 42 43 43 44
42 44 47 49 49 49 49 50 50 50 50 49 48 47 46 45 44 45 45 43 43 43 42 42 42 42 42 42 42 42 41 41 41 41 42 42 42 43 44 44 44 45 45
37 40 42 44 46 47 47 48 48 49 49 49 49 49 48 47 46 44 44 44 44 43 43 43 43 43 43 43 43 43 43 43 42 42 43 44 45 46 46 45 45 45 46
34 34 35 37 41 43 45 46 47 48 49 48 47 47 47 47 47 46 44 43 43 44 44 44 44 44 44 44 44 45 45 44 44 44 46 46 46 46 46 46 46 47 48
32 32 32 34 35 38 40 42 44 45 45 46 46 46 47 47 47 46 46 45 43 43 43 43 44 45 45 45 45 45 46 46 46 46 46 46 46 46 46 46 47 48 49
29 29 30 32 32 33 35 38 40 42 43 43 43 43 44 44 45 46 46 45 45 45 44 44 44 45 45 46 46 46 46 46 47 47 46 45 46 46 47 47 48 49 50
26 26 27 28 29 30 31 32 34 37 39 40 40 40 41 41 41 43 43 44 45 45 45 45 45 46 47 47 47 46 45 46 47 47 46 46 46 46 48 49 49 49 49

GEFSSE_500_meanwind_138.txt.gz
Wind_Speed
22 22 21 21 20 19 19 18 17 16 15 14 13 13 12 11 11 10 9 9 8 7 6 6 6 6 5 5 5 4 4 4 4 4 4 5 5 5 6 6 7 8 9
23 23 23 22 22 21 20 19 19 18 17 16 15 14 13 13 12 12 11 10 10 9 8 8 7 7 7 7 7 7 6 6 6 6 6 6 7 7 7 8 8 9 10
25 25 24 24 24 23 22 21 20 19 18 18 17 16 15 15 14 14 13 12 12 11 11 10 9 9 9 9 8 8 8 8 8 8 8 8 8 8 9 9 10 10 11
27 27 26 26 25 25 24 23 22 21 21 20 19 18 17 16 16 15 15 14 14 13 13 12 11 11 11 10 10 10 10 10 9 10 10 10 10 10 11 11 12 12 13
29 29 28 28 27 26 26 25 24 23 23 22 21 21 20 19 18 17 17 16 16 15 15 14 13 13 13 12 12 12 12 12 12 12 12 12 12 13 13 13 14 14 15
32 31 30 30 29 28 27 27 26 25 24 23 23 23 22 22 21 20 19 18 18 17 17 17 16 16 15 15 14 14 14 14 14 14 14 15 15 15 15 15 16 16 17
35 34 33 32 32 31 30 29 27 27 26 25 25 25 24 24 24 23 22 21 20 19 19 19 18 18 18 18 17 17 17 16 17 17 17 17 17 17 17 18 18 18 18
38 37 36 35 34 34 33 32 30 29 28 28 27 27 26 26 25 25 24 23 22 21 21 20 20 20 20 20 20 19 19 19 19 18 18 19 19 19 19 19 19 20 20
40 39 38 37 36 36 35 34 33 31 30 30 29 29 28 27 27 26 26 25 25 24 23 23 22 22 22 22 22 22 21 21 21 21 21 21 21 21 21 21 21 22 22
42 42 41 40 38 37 37 36 35 33 32 31 31 30 29 29 28 28 27 27 26 27 26 25 25 24 24 24 23 23 23 23 23 22 22 22 22 22 23 23 23 23 24
44 44 43 42 41 40 39 38 37 35 34 33 33 32 31 30 30 29 29 29 29 28 28 28 27 26 25 25 25 25 24 24 24 24 24 24 24 24 24 24 25 25 26
46 45 45 44 43 42 41 40 39 38 37 35 34 33 33 31 31 30 30 30 30 30 29 29 29 28 27 27 27 27 26 26 26 25 26 26 26 26 26 27 27 27 28
46 47 46 46 45 44 43 41 40 39 39 38 36 35 34 33 32 32 32 32 32 32 31 30 30 30 30 29 29 28 28 28 28 27 27 27 27 28 28 29 29 29 29
46 46 47 47 46 46 45 43 42 41 40 40 39 37 36 36 34 34 34 34 34 33 33 32 31 32 32 31 31 30 30 30 30 29 29 29 29 30 30 30 31 31 31
46 46 47 47 48 47 46 44 43 43 42 41 40 40 39 38 36 36 35 35 35 35 35 35 34 33 33 33 33 32 32 32 31 31 31 31 31 32 31 31 32 32 32
45 46 46 47 48 48 47 46 45 45 44 43 42 42 41 40 38 37 37 36 36 36 36 36 35 35 35 34 34 34 34 33 33 33 33 33 33 32 32 32 32 33 33
44 45 45 47 48 48 48 48 47 46 46 45 45 43 43 42 41 40 39 38 37 37 37 37 37 37 36 36 36 36 35 35 35 34 33 33 33 33 33 33 34 35 35
44 44 45 46 47 48 49 49 48 48 47 47 47 46 45 44 43 42 41 41 40 39 39 38 37 38 38 37 37 37 37 37 36 35 35 34 35 35 35 35 36 37 37
43 44 44 45 46 48 48 48 48 48 47 48 49 49 47 46 45 44 43 42 42 41 41 40 39 39 39 39 38 38 38 38 37 37 37 37 37 37 37 38 39 39 39
43 43 44 44 45 46 47 48 48 48 48 48 49 49 48 47 47 46 45 45 44 43 43 42 41 41 40 40 40 39 38 38 38 38 39 39 39 39 39 41 41 41 42
42 42 42 43 44 45 46 47 47 47 47 48 48 48 48 48 48 47 47 45 45 45 44 43 43 42 41 40 40 40 39 40 40 40 40 40 41 41 42 41 42 42 43
40 41 40 40 41 42 43 44 45 45 46 47 48 49 48 47 47 46 45 45 44 44 44 44 43 42 40 40 40 40 40 41 41 41 41 41 42 43 43 42 42 43 44
37 38 38 38 39 40 40 42 44 44 44 44 46 46 46 46 46 45 45 44 44 44 44 44 44 42 41 40 40 41 41 41 41 41 42 42 42 42 43 44 44 45 45
32 33 35 36 36 38 39 41 41 42 42 42 42 43 45 45 44 44 43 43 44 43 44 44 43 42 42 42 42 43 43 43 43 42 42 43 42 42 43 44 45 45 46
30 31 33 33 34 35 37 39 40 41 41 40 41 42 44 44 44 43 43 43 44 44 44 43 43 42 42 43 43 44 44 43 43 43 42 41 41 42 42 43 45 45 45
29 30 32 32 33 34 35 36 38 39 39 39 40 40 41 42 43 43 42 41 42 43 43 43 43 43 43 43 43 43 43 43 43 43 42 42 41 41 42 43 45 45 45

GEFSSE_500_meanwind_144.txt.gz
Wind_Speed
21 20 20 19 19 18 17 15 14 13 12 12 11 11 10 9 9 9 8 8 7 7 7 6 6 7 7 7 7 7 8 8 8 7 7 7 7 7 7 8 8 8 9
22 22 21 21 20 20 19 18 17 16 15 14 13 13 12 11 10 10 10 10 9 9 9 8 8 8 8 9 9 9 9 9 10 10 9 9 9 9 9 9 9 10 10
22 22 22 22 22 22 21 20 20 19 18 17 16 15 14 13 12 11 11 11 11 11 11 11 10 10 10 10 11 11 11 11 11 11 11 11 11 11 11 11 11 11 12
22 22 22 23 23 23 23 22 21 20 20 19 18 17 16 15 14 14 13 13 12 12 12 12 12 12 12 12 12 12 13 13 13 13 13 13 13 13 13 13 13 14 14
24 24 23 23 23 24 24 24 23 22 21 21 20 19 18 17 17 16 16 15 15 14 14 14 14 14 14 14 14 14 14 15 15 15 15 15 15 16 16 16 16 16 16
27 27 25 25 24 24 24 25 24 24 23 22 22 21 21 20 19 19 18 18 17 16 16 16 15 15 15 15 16 16 16 16 17 17 17 17 17 18 18 18 18 18 18
30 29 28 28 27 26 26 25 26 26 25 24 24 23 23 22 21 21 20 20 19 19 18 18 17 17 17 17 17 17 18 18 19 19 19 19 19 19 19 19 19 19 20
33 32 31 30 30 29 29 28 27 27 27 26 26 25 24 24 23 23 23 22 21 21 21 20 20 20 19 19 19 19 19 20 20 20 20 20 20 20 20 20 21 21 21
35 35 34 33 33 32 31 31 30 29 28 28 27 27 26 26 25 25 24 24 23 23 22 22 22 22 21 21 21 20 20 21 21 21 21 21 22 22 22 22 23 23 22
37 37 36 36 35 35 33 33 33 32 31 30 29 29 28 27 27 26 26 26 25 25 25 24 24 24 24 23 23 22 22 22 22 23 23 23 23 23 24 24 24 24 25
39 39 39 38 38 37 36 35 35 34 34 33 32 32 31 30 30 29 28 27 27 27 27 26 26 26 26 26 25 25 25 24 24 24 24 25 25 25 26 26 26 26 27
40 40 40 40 39 39 38 38 37 36 36 35 34 34 34 33 32 31 30 29 29 29 28 28 27 27 28 28 28 27 26 26 26 26 26 26 26 27 27 27 27 28 28
41 41 41 41 41 40 40 40 40 39 38 37 36 35 35 35 34 33 32 30 30 30 30 30 29 29 29 29 29 29 28 28 28 28 27 27 27 28 28 28 28 29 29
40 41 42 41 41 41 41 41 42 41 41 40 38 37 37 36 35 34 33 32 31 31 31 31 31 31 31 31 30 30 29 30 30 29 30 29 29 29 30 30 30 30 31
41 41 41 42 42 42 42 42 42 42 42 42 41 40 39 38 37 36 35 34 33 33 32 31 31 32 31 31 32 31 31 31 31 32 31 31 31 31 31 31 32 31 31
40 41 41 41 42 42 43 43 44 43 43 43 43 42 41 40 39 39 38 37 36 35 34 33 33 33 33 33 33 33 33 33 33 33 33 33 33 33 33 33 33 33 33
41 41 41 41 41 41 42 43 44 44 44 44 43 43 42 41 40 40 40 40 39 37 37 36 35 35 35 34 34 34 35 35 35 35 35 35 35 35 35 35 35 35 35
41 41 41 41 42 41 41 42 43 44 44 45 45 45 44 43 43 43 42 41 41 40 40 39 38 38 37 37 36 36 36 36 36 36 36 37 37 37 36 36 36 36 36
40 40 41 42 42 41 41 41 42 43 44 45 45 45 46 45 45 44 44 44 43 42 42 41 40 39 39 38 38 38 38 37 37 37 37 38 38 37 38 38 38 37 37
40 41 41 42 42 42 42 42 43 44 44 44 45 45 46 46 46 45 46 46 45 44 43 42 42 41 41 40 40 40 39 39 39 38 38 38 38 38 39 39 39 39 39
39 40 41 42 42 43 42 42 43 43 44 44 44 45 45 46 45 44 45 45 44 44 44 44 43 42 41 41 41 41 40 40 40 40 39 39 39 40 39 39 40 40 41
37 39 40 41 42 42 42 42 42 43 43 43 44 44 44 45 44 45 46 45 45 44 44 43 43 42 42 41 41 42 41 41 42 41 41 41 41 41 40 40 41 42 42
34 35 37 37 38 39 40 40 41 42 42 42 44 44 44 45 44 44 45 45 45 45 44 44 43 43 42 42 42 42 42 41 41 41 41 42 43 42 42 42 42 43 43
32 33 35 36 36 37 38 39 40 41 41 41 43 43 44 44 43 43 43 43 43 43 43 43 43 43 43 43 43 43 44 43 43 42 42 42 41 41 42 42 42 43 44
31 32 33 34 35 36 37 37 38 39 39 40 41 42 42 42 42 41 41 41 41 41 42 43 44 44 45 45 44 44 44 43 44 43 42 42 43 42 42 42 42 42 43
30 31 32 33 34 34 35 35 36 36 37 37 38 40 41 41 40 39 39 39 39 39 40 41 42 43 44 44 45 44 44 43 43 42 42 42 42 41 41 41 41 42 41

GEFSSE_500_meanwind_150.txt.gz
Wind_Speed
23 23 22 21 19 17 16 15 14 12 11 10 9 8 7 7 6 5 5 5 5 5 5 5 6 6 6 6 6 6 7 7 7 8 8 9 9 9 9 10 10 11 11
25 25 24 23 22 21 19 18 16 15 14 13 11 10 9 8 8 8 7 7 6 6 6 6 7 7 8 8 8 8 8 8 9 9 9 10 10 10 11 11 12 12 12
25 25 25 25 24 23 22 20 19 18 16 15 14 13 12 11 10 10 10 9 9 8 8 8 8 9 9 9 9 10 10 10 10 11 11 11 11 12 12 13 13 14 14
26 26 26 26 25 24 23 22 21 20 19 18 17 16 15 14 12 12 11 11 11 11 10 10 10 10 10 10 10 11 11 12 12 12 12 13 13 14 14 15 15 15 16
27 26 26 26 26 25 24 23 22 22 21 20 18 18 17 16 15 14 14 13 13 13 13 12 12 12 12 12 12 12 13 13 13 14 14 15 15 16 16 16 16 16 17
27 26 26 26 26 26 25 24 24 23 22 21 20 20 19 18 18 17 16 16 15 15 15 15 14 14 14 14 14 14 14 15 15 16 16 16 17 17 17 17 17 18 18
28 27 27 27 26 26 26 25 25 25 24 23 22 22 21 20 20 19 18 18 18 18 17 17 17 16 16 16 16 16 16 17 17 17 18 18 18 19 19 19 19 19 20
29 29 29 28 28 27 27 26 26 26 26 25 25 24 23 22 21 21 21 21 20 20 20 19 19 18 18 18 18 18 18 18 19 19 19 19 20 20 20 20 21 21 21
31 30 30 30 30 30 29 29 28 28 28 27 27 26 25 24 23 23 23 23 23 22 21 21 21 21 21 21 21 21 20 21 21 21 21 21 21 21 22 22 22 22 23
33 32 32 32 31 31 31 31 30 30 30 29 29 28 28 27 26 26 25 25 25 25 24 24 23 23 23 23 23 23 22 22 22 22 23 23 23 23 23 24 24 24 24
34 34 34 33 33 33 33 32 32 32 32 31 31 31 30 29 28 28 27 27 26 26 26 26 26 26 25 25 25 25 25 24 25 25 25 24 24 24 25 25 25 25 26
36 36 36 35 35 35 35 34 34 33 33 33 33 32 32 31 30 30 29 28 28 28 28 28 28 28 27 27 27 27 26 26 26 26 26 26 26 25 25 26 26 26 27
37 37 37 37 37 36 37 37 36 36 35 34 34 34 33 33 32 32 31 30 30 30 29 29 29 29 29 29 29 28 28 27 27 27 27 27 27 27 27 27 27 28 28
37 37 37 37 38 38 38 38 38 38 37 37 37 36 35 35 34 34 34 33 32 32 31 31 31 31 30 30 30 29 29 29 28 28 28 28 28 29 29 29 29 30 30
38 39 39 39 39 39 39 39 39 39 39 38 38 38 38 37 37 36 36 35 35 34 33 33 33 32 32 31 31 31 31 30 30 30 30 30 30 30 31 31 31 31 32
40 40 40 40 40 40 40 40 40 40 40 40 40 40 39 39 39 38 38 38 37 36 36 35 34 34 33 33 33 33 33 33 32 32 32 32 32 33 33 33 33 33 34
41 41 41 41 41 41 40 40 40 40 40 41 40 41 41 40 40 40 40 39 39 38 38 37 37 36 36 35 35 35 35 34 34 34 34 34 34 35 35 35 35 35 35
42 42 42 42 42 42 41 41 40 40 41 41 41 41 41 41 42 41 41 41 41 41 40 40 40 40 39 38 38 37 37 36 36 36 35 35 36 36 37 37 37 37 37
42 42 42 42 41 41 41 41 41 41 41 41 41 41 42 42 43 43 42 42 42 42 42 42 42 41 41 40 40 40 39 38 37 38 37 38 37 37 38 38 38 38 38
41 41 41 41 41 41 41 42 42 42 41 41 41 42 43 43 44 44 43 43 42 42 42 43 43 42 42 42 42 42 41 40 40 40 40 40 39 39 38 39 39 39 39
38 39 40 40 40 41 41 42 42 42 42 42 43 44 43 43 43 42 42 42 43 43 43 44 44 44 44 44 43 43 41 41 41 41 41 41 41 41 40 40 40 40 40
38 38 39 40 40 41 41 41 42 43 43 43 43 44 44 43 43 43 42 42 42 43 44 44 45 44 44 44 43 43 43 42 42 41 41 41 41 41 41 41 42 42 42
37 38 39 39 39 40 40 40 41 41 41 41 42 42 43 43 44 44 44 43 43 43 43 44 43 44 45 45 44 45 44 43 42 43 42 42 42 43 42 42 43 43 43
37 37 37 38 38 39 39 39 39 39 40 40 40 40 41 42 43 43 44 45 45 44 43 43 43 44 44 44 44 45 45 44 43 42 42 42 41 41 41 42 43 42 43
35 35 36 36 37 37 38 38 38 37 38 38 39 38 39 40 41 41 42 43 44 44 43 43 43 43 44 44 44 44 45 44 43 43 42 41 41 42 43 42 42 42 42
34 34 35 36 36 36 36 36 36 36 37 37 38 38 37 37 39 40 40 41 42 42 42 41 42 42 42 42 43 43 44 44 45 45 44 43 43 43 43 44 43 42 42

GEFSSE_500_meanwind_156.txt.gz
Wind_Speed
23 21 20 19 18 17 16 15 14 13 12 11 10 10 9 9 8 6 6 6 5 5 4 4 4 4 4 4 4 4 5 5 5 5 6 6 7 7 7 8 8 9 9
25 24 22 21 20 19 18 17 16 15 14 13 13 12 11 11 10 9 8 7 7 7 6 6 6 5 5 5 5 6 6 6 7 7 7 8 8 8 9 9 10 10 11
26 26 25 24 23 22 21 20 19 18 17 16 15 14 14 13 12 11 10 10 9 9 8 8 8 7 7 7 7 7 8 8 8 8 9 9 9 10 10 11 11 12 12
27 27 27 26 25 24 23 22 21 20 19 19 17 17 16 15 14 14 13 12 11 11 10 9 9 9 9 9 9 9 9 9 9 10 10 11 11 11 12 12 13 13 14
28 28 28 27 27 26 25 24 23 22 21 21 20 19 18 18 17 16 15 14 14 13 12 12 11 11 11 11 11 11 11 11 11 11 12 12 12 13 13 14 14 15 15
29 29 29 28 28 28 27 26 25 24 23 23 22 21 21 20 19 18 17 16 15 15 15 14 14 14 14 14 13 13 13 13 13 14 14 14 14 14 15 15 16 16 17
30 30 30 30 30 29 29 29 27 26 25 25 24 23 23 22 21 20 19 18 18 17 17 17 16 16 16 16 15 15 15 15 15 16 16 16 16 16 17 17 18 18 18
31 31 31 30 30 30 30 30 29 28 27 27 26 25 24 24 23 22 22 21 20 20 19 19 18 18 18 17 17 17 17 17 17 18 18 18 18 18 18 19 19 19 19
32 31 31 31 31 30 30 30 29 29 29 28 28 27 26 26 25 25 24 24 23 23 22 21 21 20 20 20 20 20 20 20 20 20 20 20 20 20 20 20 20 20 20
31 31 31 31 31 30 30 30 30 30 30 29 29 29 28 28 27 27 26 26 25 25 24 23 23 22 22 22 22 22 22 22 22 22 22 22 22 22 22 22 21 21 22
31 31 31 31 31 31 31 30 30 30 30 31 31 31 30 29 29 29 28 27 27 26 26 26 25 24 24 24 24 24 24 24 24 24 24 24 24 23 23 23 23 23 23
32 32 32 32 32 32 32 32 32 32 32 31 32 32 31 31 31 30 30 29 29 28 28 28 27 26 26 25 25 26 26 26 26 26 25 25 25 24 24 24 25 25 25
33 33 33 33 33 33 33 34 34 34 34 33 33 33 33 33 33 32 32 31 31 30 30 30 29 28 28 28 27 27 27 27 27 27 27 27 27 26 26 26 26 27 27
34 34 35 35 34 34 34 34 35 35 35 35 35 35 35 35 35 34 34 33 33 32 32 32 31 31 30 30 29 29 28 29 29 29 29 29 29 29 28 29 28 28 28
36 36 36 36 36 35 35 36 36 37 37 37 37 37 36 36 36 35 35 35 35 34 34 33 33 32 32 32 31 31 30 31 31 31 30 30 30 30 30 30 30 30 30
36 37 37 38 38 38 37 37 38 38 38 38 38 38 37 37 37 37 37 37 37 36 35 35 35 35 34 34 34 34 33 33 33 32 32 32 32 32 32 32 32 32 32
37 37 37 38 38 39 39 38 37 38 39 39 39 39 39 39 38 38 39 38 38 38 38 37 37 37 37 37 37 36 36 35 35 34 34 34 34 34 34 34 34 34 34
37 37 37 38 38 38 39 38 37 37 38 38 39 39 39 40 40 40 40 40 40 39 39 39 38 39 39 39 38 38 37 37 37 37 36 36 35 35 35 35 35 36 36
38 38 38 38 38 38 39 39 38 37 38 38 38 39 39 40 40 40 40 40 41 41 40 40 40 40 40 40 40 40 39 39 39 40 39 37 36 36 36 36 37 37 37
38 39 39 39 39 39 39 40 40 40 39 39 39 39 39 40 40 40 40 41 41 42 42 42 42 41 42 41 41 41 41 40 40 41 40 39 39 39 38 38 38 38 38
39 39 40 40 40 40 40 40 41 41 41 41 40 40 40 40 41 41 40 41 41 41 42 42 42 42 42 43 44 44 44 43 42 42 42 40 40 41 40 40 40 40 40
37 38 39 40 41 41 41 41 41 41 41 41 41 41 41 40 40 41 41 41 41 41 41 41 41 42 43 43 44 45 45 45 44 43 43 42 41 42 42 42 42 42 41
36 37 38 39 40 40 41 41 41 41 42 41 40 40 41 41 41 41 41 41 41 41 41 41 40 41 41 42 43 45 45 44 44 44 43 43 43 43 44 44 43 43 43
34 35 37 37 38 39 40 40 40 40 40 40 40 40 40 40 40 40 40 40 41 42 42 42 41 41 41 42 43 44 44 44 44 43 43 43 44 44 44 44 44 44 44
32 33 34 35 36 37 38 38 39 39 38 38 38 39 39 39 40 40 40 40 41 41 41 41 41 41 41 42 42 42 42 42 43 44 44 44 45 45 45 45 46 45 44
32 33 33 34 35 35 35 36 37 37 38 38 37 38 38 39 39 39 40 41 40 40 41 41 40 41 41 42 42 42 42 42 42 42 43 44 45 45 46 46 46 46 45

GEFSSE_500_meanwind_162.txt.gz
Wind_Speed
22 21 20 19 18 17 17 15 14 14 13 12 11 10 10 10 9 9 9 8 7 7 6 6 5 5 5 5 5 5 5 5 6 6 6 6 6 7 7 7 8 8 9
23 23 21 20 20 19 18 17 16 16 15 14 13 13 12 12 11 11 11 10 10 9 8 7 7 7 7 6 6 6 7 7 7 7 7 7 8 8 8 9 9 10 10
25 24 23 22 22 21 20 20 18 17 17 16 16 15 14 14 13 13 13 12 12 11 10 9 9 9 9 8 8 8 8 8 9 9 9 9 9 10 10 10 10 11 12
26 26 25 24 24 23 22 22 21 20 19 18 18 17 16 16 15 15 14 14 14 13 13 12 11 11 11 11 10 10 10 10 10 10 11 11 11 11 11 12 12 12 13
27 27 27 26 26 25 24 23 23 22 21 20 19 19 18 18 17 17 16 15 15 14 14 14 13 13 13 13 13 13 12 12 12 12 12 12 12 13 13 13 14 14 14
28 28 28 28 27 26 26 25 24 23 22 22 21 21 20 20 19 19 18 17 17 16 16 15 15 14 15 15 15 15 15 14 14 14 14 14 15 15 15 15 15 16 16
29 29 29 29 29 28 28 27 26 25 25 24 23 23 23 22 22 21 20 19 19 18 18 17 17 16 16 16 16 17 17 16 16 16 16 16 16 17 17 17 17 18 18
31 30 30 30 29 29 29 29 28 27 27 26 26 25 25 25 24 23 22 21 21 20 20 19 19 18 18 18 18 18 18 18 18 18 18 18 18 18 19 19 19 19 19
31 30 30 30 30 30 30 30 29 29 29 28 28 27 26 26 26 25 25 24 23 23 22 22 21 21 21 21 20 20 20 20 20 19 20 20 20 20 20 20 20 20 20
31 30 30 30 30 30 30 30 30 30 30 29 29 28 28 27 27 27 26 26 26 25 25 24 24 23 23 23 22 22 22 22 22 22 22 22 22 22 22 22 22 22 22
31 31 30 30 30 31 31 31 31 31 30 30 30 30 29 29 29 28 28 28 28 28 27 27 26 25 25 24 24 24 24 24 24 24 24 24 24 23 23 23 23 23 24
33 31 31 31 32 32 32 32 32 31 31 31 31 31 31 30 30 31 30 30 30 30 29 29 28 28 27 26 26 26 26 25 25 26 26 25 25 25 25 25 25 25 25
33 32 32 32 32 33 33 33 33 33 33 33 33 33 32 33 33 32 32 32 32 31 31 31 31 30 30 29 28 27 27 27 27 27 27 27 27 27 27 27 27 27 27
33 33 32 33 33 33 33 34 34 33 33 33 34 34 34 34 34 34 34 34 34 34 33 32 32 32 32 31 30 30 30 30 29 29 28 28 28 28 27 27 28 28 28
33 33 33 33 33 33 34 34 34 35 35 35 34 34 35 35 35 36 36 36 36 35 35 35 34 33 33 33 32 32 31 31 31 30 30 29 29 29 29 29 29 30 30
34 33 33 33 33 34 34 35 35 36 35 36 36 36 36 35 35 36 36 36 36 36 36 36 36 36 35 34 34 33 33 33 32 31 32 31 31 31 31 31 31 31 32
34 34 34 34 34 35 35 35 36 37 37 36 36 36 36 35 35 35 35 36 36 36 36 36 36 36 36 36 35 35 35 35 34 34 34 34 33 33 33 33 34 33 33
34 34 35 35 35 36 36 36 36 36 36 36 36 37 36 36 35 35 35 35 36 37 37 37 37 37 37 36 36 36 36 36 36 36 36 36 36 35 36 36 36 36 36
34 34 35 35 35 36 37 37 37 37 37 38 37 36 37 37 36 36 36 36 36 36 38 38 38 38 38 38 37 37 37 37 37 37 37 37 38 38 38 38 38 38 38
34 34 34 34 35 37 37 38 39 39 39 39 39 38 37 37 37 37 38 38 38 37 38 39 39 39 39 39 38 38 38 38 38 38 39 39 39 39 39 39 38 39 39
33 34 34 35 35 36 37 37 37 38 39 39 39 39 38 38 38 38 38 39 39 39 38 38 39 39 39 39 40 39 39 40 40 40 40 40 41 41 41 41 39 39 39
34 34 35 36 36 36 37 37 37 37 38 39 39 39 39 38 38 38 38 38 38 38 38 38 39 39 39 40 40 40 40 40 41 41 41 42 42 42 42 41 40 40 40
33 34 35 36 37 37 37 38 39 39 38 38 38 39 39 40 40 39 39 38 38 38 38 38 38 38 39 39 40 40 40 40 41 41 41 42 42 43 43 42 41 41 41
33 34 35 36 37 37 38 39 40 40 40 40 40 40 40 40 40 39 39 39 38 38 38 38 38 39 39 40 40 41 41 41 41 41 41 41 41 42 42 42 41 41 41
32 32 33 33 35 36 37 38 39 39 40 39 40 40 39 39 40 39 38 37 37 38 38 38 38 39 40 40 40 40 40 41 41 41 40 40 41 41 41 41 40 40 41
31 31 32 33 34 35 37 37 38 38 38 38 38 38 38 38 38 39 39 38 38 38 38 38 39 39 40 40 40 40 41 41 41 40 40 40 40 39 40 40 39 40 40

GEFSSE_500_meanwind_168.txt.gz
Wind_Speed
20 18 17 16 15 14 13 12 12 12 12 11 11 11 11 11 11 10 10 9 9 9 8 8 8 8 7 7 7 7 7 7 7 7 7 7 7 7 7 8 8 8 9
21 20 19 18 17 16 15 14 14 14 14 13 13 12 12 12 12 12 12 11 11 11 10 10 10 9 9 9 9 8 8 8 8 8 9 8 8 9 9 9 10 10 10
22 21 20 20 19 19 17 17 16 16 16 15 15 14 14 13 13 13 13 13 13 12 12 12 11 11 11 11 11 10 10 10 10 10 10 10 10 10 10 11 11 12 12
23 22 22 21 20 20 20 19 18 18 18 17 17 16 16 15 15 14 14 14 14 14 13 13 13 13 13 13 12 12 12 11 11 11 12 12 12 12 12 12 12 13 14
24 23 23 22 22 22 22 21 20 20 20 20 19 18 18 17 17 17 16 16 16 15 15 15 15 15 14 14 14 14 14 14 13 13 13 13 13 13 14 14 14 15 15
26 25 24 24 23 22 22 22 22 21 21 21 21 20 20 20 20 19 19 18 18 18 17 17 17 16 16 16 15 15 16 16 15 15 15 15 15 15 15 15 16 16 17
27 27 26 25 24 24 23 23 23 22 22 22 22 21 21 21 21 21 21 20 20 20 20 19 19 18 18 18 17 17 16 17 17 17 17 17 17 16 17 17 18 18 18
28 28 28 27 26 25 24 24 23 23 23 23 23 22 22 22 22 22 22 22 22 22 22 22 21 21 20 20 19 19 19 19 18 18 18 18 18 19 19 19 20 20 20
30 29 29 28 27 26 25 25 25 25 25 24 24 24 24 24 24 24 24 24 24 24 24 24 23 23 22 22 22 22 21 21 20 20 20 20 20 21 21 21 22 22 21
30 30 29 29 28 27 27 27 27 26 26 26 26 26 25 25 25 25 25 25 25 26 26 26 25 25 24 24 24 23 23 23 22 22 22 22 22 23 23 23 23 23 23
31 31 30 30 30 30 29 29 29 29 29 29 29 28 28 28 28 27 27 27 27 27 27 27 27 27 27 26 26 25 25 25 24 24 24 24 24 24 24 25 25 24 24
30 31 31 30 30 30 30 31 31 31 31 31 31 30 30 29 29 29 28 28 28 29 29 29 29 29 29 29 28 28 27 26 26 26 26 26 26 26 27 26 25 25 25
32 31 31 31 31 31 30 32 32 32 32 32 32 32 32 31 31 30 30 30 30 30 31 31 31 32 32 31 30 30 29 29 28 28 28 28 27 27 27 26 26 26 26
32 32 31 31 31 32 31 32 32 33 33 33 33 33 33 33 33 32 32 32 32 32 32 32 33 33 34 33 32 32 32 31 31 30 29 29 28 28 27 26 26 26 27
32 32 32 32 32 32 32 32 33 33 34 34 34 34 34 34 34 34 34 33 33 33 32 33 33 33 34 35 34 33 33 33 32 32 31 30 30 29 28 27 27 27 28
32 33 33 33 33 33 33 33 33 33 34 34 34 35 35 35 35 35 35 35 34 34 33 33 34 34 34 35 35 34 34 33 33 33 32 32 31 30 29 29 29 29 30
31 32 32 33 32 32 33 34 34 33 34 35 35 35 35 35 35 35 35 35 35 35 34 34 34 35 35 35 35 35 35 34 34 34 33 33 33 33 31 31 32 32 33
31 31 31 32 32 31 32 34 35 35 34 35 36 36 35 35 34 34 34 35 35 36 36 36 36 36 37 37 37 37 36 36 36 35 35 35 35 34 34 34 33 33 33
31 31 31 31 31 32 32 32 34 35 35 35 35 35 35 36 36 35 35 35 36 36 37 37 37 37 37 37 37 37 37 37 36 36 36 36 36 36 36 36 36 36 35
30 31 31 32 32 33 33 33 33 34 35 35 35 35 35 36 36 37 37 37 37 37 37 37 37 37 38 38 38 38 38 38 38 38 37 37 37 38 38 37 37 38 39
29 31 32 33 33 34 34 34 34 34 34 34 36 36 36 36 36 36 36 37 37 37 37 37 37 37 37 38 38 39 39 40 39 39 39 39 39 39 39 39 39 40 40
29 30 32 33 34 34 34 34 34 34 34 34 35 35 36 36 37 37 37 37 37 37 37 37 37 37 38 38 39 39 39 40 39 40 40 41 40 40 39 39 39 39 39
29 30 31 32 33 34 35 35 35 35 36 36 36 36 37 38 37 37 37 37 36 36 36 37 38 39 39 39 39 39 39 39 39 40 40 41 40 40 39 39 40 40 39
28 29 30 31 31 32 33 33 34 34 36 37 37 38 38 39 39 39 38 38 37 37 37 37 38 38 38 38 38 38 38 39 39 39 39 40 40 40 40 40 40 41 41
28 28 29 29 29 30 31 32 32 33 33 34 35 36 37 38 38 38 39 39 38 38 38 38 38 38 38 38 38 37 37 38 39 40 39 39 40 40 41 41 41 41 42
27 27 27 28 29 29 30 31 32 31 32 33 33 33 34 35 36 37 38 38 38 38 38 39 39 39 39 39 38 38 37 37 38 39 39 39 40 40 42 42 42 42 42